Weather History for KHFF - March, 2013

Change the Weather History Date:

Thursday, March 21, 2013

  Actual Average Record
Temperature  
Mean Temperature 40 °F -  
Max Temperature 47 °F 62 °F 78 °F (2011)
Min Temperature 32 °F 42 °F 30 °F (2014)
Degree Days  
Heating Degree Days 25    
Moisture  
Dew Point 16 °F    
Average Humidity 41    
Maximum Humidity 78    
Minimum Humidity 20    
Precipitation  
Precipitation 0.00 in - - ()
Sea Level Pressure  
Sea Level Pressure 29.85 in    
Wind  
Wind Speed 8 mph (NW)    
Max Wind Speed 17 mph    
Max Gust Speed 29 mph    
Visibility 11 miles    
Events      
Averages and records for this station are not official NWS values.
T = Trace of Precipitation, MM = Missing Value Source: NWS Daily Summary

Daily Weather History Graph

Daily Weather History Graph

Search for Another Location

Airport or City:

Trip Planner

Search our weather history database for the weather conditions in past years. The results will help you decide how hot, cold, wet, or windy it might be!

Date:

Astronomy

Mar. 21, 2013 Rise Set
Actual Time 7:19 AM EDT 7:30 PM EDT
Civil Twilight 6:54 AM EDT 7:56 PM EDT
Nautical Twilight 6:25 AM EDT 8:25 PM EDT
Astronomical Twilight 5:55 AM EDT 8:55 PM EDT
Moon 2:09 PM EDT (3/21) 3:29 AM EDT (3/21)
Length of Visible Light 13h 01m
Length of Day
12h 10m
Waxing Gibbous, 68% of the Moon is Illuminated
Mar 21
Waxing Gibbous
Mar 27
Full
Apr 3
Last Quarter
Apr 10
New
Apr 18
First Quarter

Hourly Weather History & Observations

Time (EDT) Temp. Windchill Dew Point Humidity Pressure Visibility Wind Dir Wind Speed Gust Speed Precip Events Conditions
12:56 AM 35.6 °F - 29.5 °F 78% 29.78 in 11.0 mi NW 1.2 mph - N/A   Clear
1:56 AM 36.3 °F - 27.1 °F 69% 29.78 in 12.0 mi SE 1.2 mph - N/A   Scattered Clouds
2:56 AM 32.5 °F 28.1 °F 25.7 °F 76% 29.78 in 12.0 mi NNW 4.6 mph - N/A   Clear
3:56 AM 35.4 °F 30.5 °F 27.0 °F 71% 29.78 in 12.0 mi NNW 5.8 mph - N/A   Clear
4:56 AM 36.1 °F 32.3 °F 28.6 °F 74% 29.78 in 12.0 mi NW 4.6 mph - N/A   Scattered Clouds
6:56 AM 35.1 °F 28.6 °F 21.0 °F 57% 29.81 in 12.0 mi WNW 8.1 mph - N/A   Clear
7:56 AM 34.7 °F 28.1 °F 19.8 °F 54% 29.83 in 12.0 mi NW 8.1 mph - N/A   Clear
8:56 AM 38.7 °F 30.9 °F 21.0 °F 49% 29.84 in 12.0 mi NNW 12.7 mph - N/A   Clear
9:55 AM 40.5 °F 33.6 °F 19.8 °F 44% 29.86 in 10.0 mi NNW 11.5 mph 19.6 mph N/A   Clear
10:55 AM 42.3 °F 34.4 °F 15.8 °F 34% 29.85 in 10.0 mi North 16.1 mph 21.9 mph N/A   Clear
11:55 AM 44.2 °F 37.3 °F 12.4 °F 28% 29.85 in 10.0 mi NW 15.0 mph 21.9 mph N/A   Clear
12:55 PM 45.3 °F 38.4 °F 10.2 °F 24% 29.84 in 10.0 mi West 16.1 mph 23.0 mph N/A   Clear
1:55 PM 46.4 °F 39.8 °F 10.4 °F 23% 29.83 in 10.0 mi NW 16.1 mph 23.0 mph N/A   Clear
2:55 PM 47.5 °F - 11.8 °F 24% 29.83 in 10.0 mi WNW 13.8 mph 28.8 mph N/A   Clear
3:55 PM 47.8 °F - 10.6 °F 22% 29.81 in 10.0 mi WNW 12.7 mph 25.3 mph N/A   Clear
4:55 PM 48.0 °F - 8.4 °F 20% 29.83 in 10.0 mi WNW 17.3 mph 24.2 mph N/A   Clear
5:18 PM 48.2 °F - 10.4 °F 22% 29.82 in 12.0 mi WNW 15.0 mph 25.3 mph N/A   Clear
5:56 PM 47.5 °F - 10.6 °F 23% 29.84 in 12.0 mi WNW 15.0 mph 20.7 mph N/A   Clear
6:56 PM 45.5 °F 39.9 °F 10.4 °F 24% 29.88 in 12.0 mi NNW 11.5 mph - N/A   Clear
7:56 PM 41.7 °F 36.7 °F 11.1 °F 29% 29.91 in 12.0 mi North 8.1 mph - N/A   Clear
8:56 PM 38.8 °F 33.8 °F 11.5 °F 33% 29.94 in 12.0 mi North 6.9 mph - N/A   Clear
9:56 PM 36.7 °F 32.0 °F 11.5 °F 35% 29.95 in 12.0 mi North 5.8 mph - N/A   Clear
10:56 PM 34.9 °F 28.3 °F 10.9 °F 37% 29.96 in 12.0 mi NNE 8.1 mph - N/A   Clear
11:56 PM 33.1 °F 27.7 °F 11.3 °F 40% 29.99 in 12.0 mi NNE 5.8 mph - N/A   Clear